Location: DeLan Observatory
(46.9670°N, 70.5500°W)
Time: 22:03:32
(UTC-04:00)

Envisat - Visible Passes

Search period start: 15 October 2019 00:00
Search period end: 25 October 2019 00:00
Orbit: 764 x 766 km, 98.1° (Epoch: 15 October)

Date Brightness Start Highest point End Pass type
(mag) Time Alt. Az. Time Alt. Az. Time Alt. Az.
15 Oct 3.1 18:18:15 10° SSE 18:23:13 58° ENE 18:28:14 10° N visible
15 Oct 5.7 19:58:57 10° SW 20:02:38 20° W 20:06:20 10° NW visible
16 Oct 6.2 06:25:19 10° NE 06:28:27 16° E 06:31:34 10° SE visible
16 Oct 4.4 19:20:47 10° SSW 19:25:33 41° W 19:30:22 10° NNW visible
17 Oct 3.1 18:43:36 10° SSE 18:48:41 85° WSW 18:53:48 10° NNW visible
17 Oct 6.2 20:26:45 10° WSW 20:28:29 12° W 20:30:12 10° WNW visible
18 Oct 5.3 19:47:09 10° SSW 19:51:16 25° W 19:55:24 10° NW visible
19 Oct 6.4 06:14:46 10° ENE 06:17:02 13° E 06:19:17 10° ESE visible
19 Oct 3.9 19:09:19 10° S 19:14:15 51° W 19:19:13 10° NNW visible
20 Oct 3.0 18:32:21 10° SSE 18:37:25 78° ENE 18:42:32 10° N visible
20 Oct 6.0 20:14:15 10° WSW 20:17:04 15° W 20:19:53 10° NW visible
21 Oct 4.9 19:35:27 10° SSW 19:39:53 30° W 19:44:23 10° NNW visible
22 Oct 3.5 18:57:55 10° S 19:02:56 63° WSW 19:08:00 10° NNW visible
23 Oct 3.0 18:21:11 10° SSE 18:26:11 63° ENE 18:31:14 10° N visible
23 Oct 5.7 20:02:11 10° SW 20:05:39 18° W 20:09:09 10° NW visible
24 Oct 6.1 06:28:06 10° NE 06:31:29 18° E 06:34:50 10° SE visible
24 Oct 4.5 19:23:52 10° SSW 19:28:33 37° W 19:33:17 10° NNW visible
